Montgomery, AL

4:27 PM CST on February 26, 2017 (GMT -0600)
Montgomery Regional

Weather History for KMGM - September, 2013

Change the Weather History Date:

Tuesday, September 17, 2013

  Actual Average Record
Temperature  
Mean Temperature 80 °F 76 °F  
Max Temperature 94 °F 87 °F 102 °F (1927)
Min Temperature 66 °F 65 °F 52 °F (1961)
Degree Days  
Heating Degree Days 0 0  
Month to date heating degree days 0 0  
Since 1 July heating degree days 0 0  
Cooling Degree Days 15 11  
Month to date cooling degree days 274 225  
Year to date cooling degree days 2096 2014  
Growing Degree Days 30 (Base 50)    
Moisture  
Dew Point 66 °F    
Average Humidity 64    
Maximum Humidity 87    
Minimum Humidity 41    
Precipitation  
Precipitation 0.00 in 0.13 in 2.93 in (1986)
Month to date precipitation 0.10 2.34  
Year to date precipitation 43.11 39.05  
Sea Level Pressure  
Sea Level Pressure 30.08 in    
Wind  
Wind Speed 7 mph (ENE)    
Max Wind Speed 20 mph    
Max Gust Speed 23 mph    
Visibility 10 miles    
Events      
T = Trace of Precipitation, MM = Missing Value Source: NWS Daily Summary

Daily Weather History Graph

Daily Weather History Graph

Search for Another Location

Airport or City:

Trip Planner

Search our weather history database for the weather conditions in past years. The results will help you decide how hot, cold, wet, or windy it might be!

Date:

Astronomy

Sep. 17, 2013 Rise Set
Actual Time 6:30 AM CDT 6:48 PM CDT
Civil Twilight 6:06 AM CDT 7:13 PM CDT
Nautical Twilight 5:37 AM CDT 7:41 PM CDT
Astronomical Twilight 5:08 AM CDT 8:10 PM CDT
Moon 5:32 PM CDT (9/17) 4:29 AM CDT (9/17)
Length of Visible Light 13h 06m
Length of Day
12h 17m
Waxing Gibbous, 96% of the Moon is Illuminated
Sep 17
Waxing Gibbous
Sep 19
Full
Sep 26
Last Quarter
Oct 4
New
Oct 11
First Quarter

Hourly Weather History & Observations

Time (CDT) Temp. Heat Index Dew Point Humidity Pressure Visibility Wind Dir Wind Speed Gust Speed Precip Events Conditions
12:53 AM 73.0 °F - 64.9 °F 76% 30.08 in 10.0 mi Calm Calm - N/A   Clear
1:53 AM 71.1 °F - 64.0 °F 78% 30.08 in 10.0 mi Calm Calm - N/A   Clear
2:53 AM 70.0 °F - 64.0 °F 81% 30.06 in 10.0 mi Calm Calm - N/A   Clear
3:53 AM 70.0 °F - 62.1 °F 76% 30.06 in 10.0 mi Calm Calm - N/A   Clear
4:53 AM 69.1 °F - 62.1 °F 78% 30.06 in 10.0 mi Calm Calm - N/A   Clear
5:53 AM 69.1 °F - 62.1 °F 78% 30.08 in 10.0 mi NNE 3.5 mph - N/A   Clear
6:53 AM 66.0 °F - 62.1 °F 87% 30.09 in 10.0 mi Calm Calm - N/A   Clear
7:53 AM 71.1 °F - 64.0 °F 78% 30.11 in 10.0 mi Calm Calm - N/A   Clear
8:53 AM 78.1 °F - 64.0 °F 62% 30.12 in 10.0 mi ENE 3.5 mph - N/A   Clear
9:53 AM 82.9 °F 84.6 °F 64.9 °F 54% 30.12 in 10.0 mi NNE 5.8 mph - N/A   Clear
10:53 AM 86.0 °F 89.4 °F 68.0 °F 55% 30.12 in 10.0 mi ENE 5.8 mph - N/A   Clear
11:53 AM 89.1 °F 92.9 °F 68.0 °F 50% 30.11 in 10.0 mi ENE 10.4 mph - N/A   Clear
12:53 PM 91.0 °F 95.2 °F 68.0 °F 47% 30.08 in 10.0 mi ENE 12.7 mph - N/A   Partly Cloudy
1:53 PM 93.0 °F 96.4 °F 66.9 °F 42% 30.06 in 10.0 mi East 10.4 mph - N/A   Partly Cloudy
2:53 PM 91.0 °F 95.2 °F 68.0 °F 47% 30.03 in 10.0 mi ENE 8.1 mph - N/A   Clear
3:53 PM 90.0 °F 95.4 °F 70.0 °F 52% 30.02 in 10.0 mi NE 11.5 mph - N/A   Mostly Cloudy
4:53 PM 88.0 °F 93.8 °F 71.1 °F 57% 30.02 in 10.0 mi ENE 12.7 mph - N/A   Scattered Clouds
5:53 PM 86.0 °F 91.5 °F 71.1 °F 61% 30.04 in 10.0 mi East 12.7 mph - N/A   Clear
6:53 PM 82.0 °F 85.9 °F 70.0 °F 67% 30.04 in 10.0 mi East 11.5 mph - N/A   Clear
7:53 PM 79.0 °F - 69.1 °F 72% 30.07 in 10.0 mi East 12.7 mph - N/A   Clear
8:53 PM 78.1 °F - 69.1 °F 74% 30.09 in 10.0 mi East 12.7 mph - N/A   Clear
9:53 PM 77.0 °F - 68.0 °F 74% 30.11 in 10.0 mi East 11.5 mph - N/A   Clear
10:53 PM 75.9 °F - 66.9 °F 74% 30.12 in 10.0 mi East 11.5 mph - N/A   Clear
11:53 PM 75.0 °F - 66.9 °F 76% 30.11 in 10.0 mi East 10.4 mph - N/A   Clear